Regional Weather Roundup
Issued by NWS Upton, NY

Current Version | Previous Version | Text Only | Print | Product List | Glossary Off
Versions: 1 2 3 4 5 6 7 8 9 10 11 12 13 14 15 16 17 18 19 20 21 22 23 24 25 26 27 28 29 30 31 32 33 34 35 36 37 38 39 40 41 42 43 44 45 46 47 48 49 50
000 ASUS41 KOKX 230818 RWROKX REGIONAL WEATHER ROUNDUP NATIONAL WEATHER SERVICE NEW YORK NY 400 AM EDT SAT MAY 23 2015 NOTE: "FAIR" INDICATES FEW OR NO CLOUDS BELOW 12,000 FEET WITH NO SIGNIFICANT WEATHER AND/OR OBSTRUCTIONS TO VISIBILITY. NYZ071-072-176-178-NJZ106-104-230900- NEW YORK CITY METRO AREA CITY SKY/WX TMP DP RH WIND PRES REMARKS CENTRAL PARK CLEAR 53 24 32 VRB5 30.30R LAGUARDIA APRT CLEAR 53 26 35 NW14 30.27R KENNEDY INTL CLEAR 54 20 26 NW22G28 30.28R NEWARK/LIBERTY CLEAR 51 25 36 W14 30.29R BRNX BOT. GARD N/A 50 27 40 NW1 30.29R TETERBORO CLEAR 50 24 36 W7 30.27R $$ NYZ177-179-078>081-230900- LONG ISLAND NEW YORK CITY SKY/WX TMP DP RH WIND PRES REMARKS FARMINGDALE CLEAR 52 25 35 NW8 30.25R ISLIP CLEAR 52 25 35 NW15G21 30.22R SHIRLEY CLEAR 52 26 36 NW13 30.23R WESTHAMPTON CLEAR 50 33 52 NW7 30.23R MONTAUK POINT N/A 53 34 48 NW10G18 30.21R $$ NYZ052-065-067-230900- HUDSON VALLEY CITY SKY/WX TMP DP RH WIND PRES REMARKS WHITE PLAINS CLEAR 49 25 39 W12 30.24R NEWBURGH CLEAR 43 30 61 NW9 30.26R MONTGOMERY CLEAR 44 28 53 W7 30.27R POUGHKEEPSIE CLEAR 46 27 47 N10 30.27R ALBANY CLEAR 40 23 50 NW6 30.27R $$ NJZ001-105-106-008-010-013-015-019>022-104-230900- NEW JERSEY CITY SKY/WX TMP DP RH WIND PRES REMARKS NEWARK/LIBERTY CLEAR 51 25 36 W14 30.29R TETERBORO CLEAR 50 24 36 W7 30.27R CALDWELL CLEAR 49 25 39 W7 30.29R MORRISTOWN CLEAR 50 25 37 NW5 30.29R SOMERVILLE CLEAR 46 29 51 CALM 30.28R SUSSEX CLEAR 43 26 51 CALM 30.31R ANDOVER N/A 45 27 49 CALM 30.30R TRENTON CLEAR 49 32 52 NW6 30.29R MILLVILLE CLEAR 53 32 44 NW6 30.27R ATLANTIC CITY CLEAR 52 36 54 N9 30.26R WRIGHTSTOWN CLEAR 48 35 60 N5 30.26R TOMS RIVER CLEAR N/A N/A N/A N5 30.27S BELMAR CLEAR 52 27 37 NW10 30.27R $$ PAZ047>061-062-071-230900- EASTERN PENNSYLVANIA CITY SKY/WX TMP DP RH WIND PRES REMARKS PHILADELPHIA PTCLDY 55 32 41 N12 30.29R ALLENTOWN CLEAR 46 28 49 N8 30.31R SCRANTON CLEAR 43 25 49 W6 30.32R $$ CTZ002-004>006-009-010-012-RIZ004-006-007-MAZ004-011-015-230900- SOUTHERN NEW ENGLAND IN CT CITY SKY/WX TMP DP RH WIND PRES REMARKS BRADLEY INTL CLEAR 45 28 51 NW9 30.22R HARTFORD CLEAR 48 26 42 VRB7 30.23R DANBURY CLEAR 46 26 45 N7 30.26R WTRBRY/OXFORD CLEAR 45 27 49 NW8 30.26R BRIDGEPORT CLEAR 51 27 39 NW9 30.25R MERIDEN PTCLDY 48 28 46 NW3 30.24R NEW HAVEN CLEAR 50 32 50 NW7 30.25R CHESTER FAIR 46 28 49 NW7 30.23R GROTON CLEAR 51 25 36 NW10 30.20R WILLIMANTIC CLEAR 48 29 47 W6 30.20R IN RI CITY SKY/WX TMP DP RH WIND PRES REMARKS PROVIDENCE CLEAR 49 27 42 NW8 30.18R BLOCK ISLAND CLEAR 52 28 40 NW9G16 30.18R WESTERLY CLEAR 50 25 37 W5 30.20R IN MA CITY SKY/WX TMP DP RH WIND PRES REMARKS BOSTON CLEAR 47 28 47 NW16G24 30.18R WORCESTER CLEAR 42 30 62 N7 30.17R WESTFIELD CLEAR 41 28 60 NW5 30.22R PROVINCETOWN CLEAR 50 36 57 NW22G29 30.15R NANTUCKET CLEAR 55 27 34 NW15G26 30.12R $$ ANZ330-335-338-340-345-350-353-355-230900- COASTAL MARINE OBSERVATIONS STATION/POSITION TIME SKY/WX TEMP WIND PRES VSBY WAVE AIR SEA DIR/SP/G HT/PER (UTC) (F) (DEG/KT/KT) (MB) (MI) (FT/S) NY HARB ENTRANCE 0750 55 56 320/ 23/ 27 1023.7 3/ 4 4S FIRE IS 0703 54 N/A 2/ 3 20S FIRE ISLAND 0750 56 55 320/ 21/ 27 1023.5 3/ 4 GREAT SOUTH BAY 0700 56 63 320/ 17/ 21 N/A 23SW MTP 0750 54 52 310/ 16/ 17 1022.4 2/ 5 HUDSON CANYON NOT AVBL KINGS POINT 0700 54 53 360/ 13/ 20 1023.3 CENTRAL LI SOUND 0730 53 51 310/ 16/ 19 N/A EASTERN LI SOUND 0700 53 320/ 10/ 16 N/A ROBBINS REEF 0700 54 320/ 15/ 19 1023.2 $$ >>>>>>>>>>>>>>>>>>>>>>>>>>>> KEY <<<<<<<<<<<<<<<<<<<<<<<<<<< > < > SKY/WX - SKY CONDITION/PRESENT WEATHER < > TMP - TEMPERATURE IN FAHRENHEIT < > DP - DEWPOINT IN FAHRENHEIT < > RH - RELATIVE HUMIDITY IN PERCENT < > WIND - DIRECTION AND SPEED IN MPH < > PRES - MEAN SEA LEVEL PRESSURE IN INCHES OF HG < > WCI - WIND CHILL INDEX < > VSB - VISIBILITY IN MILES < > HX - HEAT INDEX < > TC - TEMPERATURE IN CELSIUS < > VRB - VARIABLE WIND DIRECTION < > < >>>>>>>>>>>>>>>>>>>>>>>>>>>> KEY <<<<<<<<<<<<<<<<<<<<<<<<<<<

USA.gov is the U.S. government's official web portal to all federal, state and local government web resources and services.